Temperature
19 18 19 19 19 19 19 19 19 19 19 19 19 19 19 18 18 18 18 18 18 18 18 18 18 18 18 18 18 18 18 18 18 18 18 18 17 17 17 17 17 16 17
20 18 19 19 19 19 19 19 19 19 19 19 19 19 18 18 18 18 18 18 18 18 18 18 18 18 18 18 18 18 17 17 17 17 17 17 17 17 17 17 17 17 17
19 18 19 19 19 19 19 19 19 19 19 19 19 19 18 18 18 18 18 18 18 18 18 18 18 18 18 18 18 17 17 17 17 17 17 17 17 17 17 17 17 17 17
19 19 18 19 19 19 19 19 19 19 19 19 19 18 18 18 18 18 18 18 18 18 18 18 18 18 18 18 18 18 17 17 17 17 17 17 16 17 17 17 17 17 17
19 18 19 19 19 19 19 19 19 19 19 19 19 18 18 18 18 18 18 18 18 18 18 18 18 18 18 18 18 17 17 17 17 17 16 16 17 17 17 17 17 17 17
19 19 19 19 19 19 19 19 19 19 19 18 18 18 18 18 18 18 18 18 18 18 18 18 18 18 18 18 17 17 17 17 17 17 16 16 16 17 17 17 17 17 17
20 19 19 19 19 19 19 19 19 19 19 18 18 18 18 18 18 18 18 18 18 18 18 18 18 18 17 17 17 17 17 17 17 17 16 16 17 17 17 17 17 17 17
20 19 18 19 19 19 19 19 19 19 18 18 18 18 18 18 18 18 18 18 18 18 18 18 17 17 17 17 17 17 17 17 17 17 16 16 17 17 17 17 17 17 17
20 19 18 18 19 19 19 19 19 18 18 18 18 18 18 18 18 18 18 18 18 18 18 18 17 17 17 17 17 17 17 17 17 17 16 16 17 17 17 17 17 17 16
20 19 19 18 18 18 18 19 19 18 18 18 18 18 18 18 18 18 17 18 18 18 18 18 18 17 17 17 17 17 17 17 17 17 17 16 17 17 17 17 16 16 16
19 19 19 19 18 18 18 18 18 18 18 18 18 18 18 17 17 17 17 18 18 18 18 18 18 17 17 17 17 17 17 17 17 17 16 17 17 17 17 17 16 16 16
19 19 19 19 18 18 18 18 17 18 18 17 17 17 17 17 17 17 18 18 18 18 18 18 17 17 17 17 17 17 17 17 17 17 17 17 17 17 17 17 17 16 16
19 19 19 18 18 18 18 18 18 18 18 17 17 17 17 17 17 17 17 17 17 17 17 17 17 17 17 17 17 17 17 17 17 17 17 17 17 17 17 17 17 16 16
19 19 19 18 18 18 18 18 18 18 18 18 17 17 17 17 17 17 17 17 17 17 17 17 17 17 17 17 17 17 17 17 17 17 17 17 17 17 17 17 17 16 16
19 19 19 19 19 19 19 18 18 18 18 18 17 17 17 17 17 17 17 17 17 17 17 17 17 17 17 17 17 17 17 17 17 17 17 17 17 17 17 17 17 16 16
19 19 19 19 19 19 19 19 18 18 18 18 18 17 17 17 17 17 17 17 17 17 17 17 17 17 17 17 17 17 17 17 17 17 17 17 17 17 17 17 17 17 16
20 19 19 19 19 19 19 18 18 18 18 18 18 18 18 17 17 17 17 17 17 17 17 17 17 17 17 17 17 17 17 17 17 17 17 17 17 17 17 17 17 17 17
20 20 20 19 19 19 19 19 18 18 18 18 18 18 18 18 18 18 17 17 17 17 17 17 17 17 17 17 17 17 17 17 17 17 17 17 17 17 17 17 17 17 17
21 20 20 20 19 19 19 19 18 18 18 18 18 18 18 18 18 18 17 17 17 17 17 17 17 17 17 17 17 17 17 17 17 17 17 17 17 17 17 17 17 17 17
21 21 21 20 20 20 19 19 19 18 18 18 18 18 18 18 18 18 17 17 17 17 17 17 17 17 17 17 18 18 18 18 18 18 17 17 17 17 17 17 16 17 17
21 20 21 20 20 20 19 19 19 19 18 18 18 18 18 18 18 18 18 18 18 17 17 17 17 17 17 17 17 18 18 18 18 18 18 18 18 17 17 17 17 16 16
20 21 20 20 20 20 19 19 19 19 18 18 18 18 18 18 18 18 18 18 17 17 17 17 17 18 18 17 18 18 18 19 18 18 18 18 18 18 17 17 17 17 17
20 21 20 20 20 20 19 19 19 19 19 18 18 18 18 18 18 18 18 18 18 17 17 17 17 17 17 18 18 18 18 19 19 19 18 18 18 18 18 18 17 17 17
21 20 20 20 20 20 19 19 19 18 18 19 18 18 18 18 18 18 18 18 18 17 17 17 17 17 17 17 17 17 17 18 18 19 19 18 18 18 18 18 18 17 17
20 20 20 20 20 20 20 19 19 18 18 18 18 18 18 18 18 18 18 18 18 18 17 17 17 17 17 17 17 17 17 17 17 18 18 18 18 18 18 18 17 17 17
20 20 20 20 20 20 19 19 19 18 18 18 18 18 18 18 18 18 18 18 18 18 17 17 17 17 17 17 17 17 17 17 18 18 18 18 18 18 18 18 18 18 17
Wind_Speed
11 14 14 13 14 15 15 15 16 16 16 16 15 15 15 15 15 15 15 15 15 15 15 15 15 16 16 16 16 16 17 17 17 18 18 18 18 18 17 16 16 18 18
14 16 15 14 15 15 15 15 15 15 15 15 15 15 14 14 14 14 14 14 15 15 15 15 15 16 16 16 16 16 16 16 17 18 18 18 17 16 14 12 14 17 17
15 17 16 15 15 15 15 15 15 15 15 14 14 14 14 14 14 14 14 14 15 15 15 15 15 16 16 16 16 16 16 16 15 15 14 15 16 14 15 15 17 17 16
16 16 16 16 15 15 14 14 14 14 14 14 14 13 13 13 13 13 14 14 15 15 15 15 15 15 15 15 15 15 15 14 12 9 10 13 15 15 15 15 16 16 15
15 15 17 15 15 14 14 14 14 13 13 13 13 13 13 13 13 13 13 13 14 14 15 15 15 15 15 15 14 14 14 12 7 6 12 12 14 14 14 15 15 15 14
15 15 17 15 14 14 14 13 13 13 12 12 12 12 12 12 13 13 13 13 14 14 14 14 15 14 14 14 14 13 12 8 7 10 10 11 13 13 13 14 14 14 14
15 15 17 15 14 13 13 13 12 12 11 11 11 12 12 12 12 12 13 13 13 13 13 13 13 13 13 13 12 11 9 3 7 10 9 11 13 13 12 13 13 13 13
14 15 17 15 13 13 12 12 11 11 11 11 11 11 11 11 12 12 12 13 12 12 12 12 12 12 11 11 11 10 7 2 9 9 9 11 13 11 12 12 12 12 12
13 14 15 16 14 12 11 11 10 10 10 11 11 11 11 11 11 12 12 12 12 12 11 11 11 11 10 10 9 8 5 2 6 8 9 10 11 11 11 11 11 11 11
12 12 12 13 13 12 12 11 10 10 10 10 10 10 10 11 11 11 11 11 11 10 10 10 10 9 9 9 8 7 5 4 6 7 7 11 10 10 10 10 10 10 11
11 10 11 12 11 10 10 12 11 11 10 10 10 10 9 9 10 10 12 11 9 9 9 9 9 8 8 9 7 5 6 2 6 6 7 12 9 9 9 9 9 10 10
13 12 10 10 10 9 8 10 8 9 9 7 8 8 6 6 6 9 12 9 9 8 8 8 7 8 7 7 8 7 3 4 4 5 9 10 8 8 8 8 8 8 8
13 12 11 9 9 9 7 7 6 6 7 7 7 6 5 6 7 7 8 9 8 9 7 8 8 5 3 3 2 3 3 2 3 5 9 9 7 7 8 7 7 7 7
13 12 11 10 9 8 6 6 6 6 6 6 7 6 6 4 4 5 4 6 6 5 4 4 3 3 2 2 1 1 2 1 2 3 8 9 7 7 7 7 7 8 7
13 12 11 10 9 8 6 5 6 5 6 6 5 5 4 5 4 4 3 3 4 4 5 3 3 3 3 3 2 2 1 1 1 2 7 10 8 7 7 7 7 8 8
13 12 11 11 10 9 7 6 5 5 5 5 5 6 6 4 4 4 4 4 3 3 3 3 4 3 3 2 2 2 3 2 2 2 4 9 10 9 9 8 8 8 8
12 11 11 11 10 10 8 8 6 6 6 6 5 6 6 5 4 4 4 4 4 4 4 4 4 3 4 4 4 4 3 3 3 3 4 4 8 12 11 10 10 9 9
12 12 11 10 11 10 8 7 6 6 6 6 6 6 7 6 5 5 4 4 4 5 5 4 4 4 4 4 4 4 3 4 5 5 5 5 5 6 12 13 12 12 11
13 13 12 11 11 11 10 8 7 6 6 6 6 6 6 7 7 7 5 4 5 5 5 5 4 4 4 4 4 5 5 5 5 6 6 6 6 6 6 13 14 13 13
12 12 13 12 11 10 9 7 7 7 6 7 7 6 7 7 8 8 7 6 7 5 5 5 4 4 4 5 6 4 5 5 6 6 7 7 7 8 8 8 10 13 16
13 13 13 12 12 10 8 8 8 8 7 7 7 8 8 8 8 8 7 6 6 6 6 7 5 6 6 5 5 5 6 7 7 6 7 6 7 8 8 8 9 9 11
13 13 13 13 12 12 9 7 6 6 6 6 6 7 9 9 9 9 8 7 7 6 7 7 6 5 5 5 5 5 5 6 7 8 7 7 7 7 8 10 9 10 10
12 13 12 13 12 12 10 7 6 6 5 6 7 7 8 9 10 9 9 8 7 7 7 8 7 8 6 6 6 5 4 4 3 4 6 7 6 6 7 8 10 10 11
12 12 12 12 12 11 11 10 10 8 8 7 6 6 7 9 9 10 9 8 8 7 7 8 8 7 7 7 6 6 7 5 4 3 4 5 6 7 7 7 7 9 10
11 11 11 12 12 12 11 11 11 9 8 6 6 7 7 7 9 9 9 8 8 8 8 8 6 8 7 8 7 6 7 7 8 7 6 4 5 5 6 6 6 6 8
10 10 11 12 12 11 11 11 11 11 10 8 7 7 7 6 7 9 9 8 9 8 8 8 8 9 8 8 7 7 7 6 7 7 7 7 6 5 5 5 5 5 7
Wind_Direction
132 124 122 119 117 115 113 112 112 112 112 112 110 107 104 102 102 102 102 103 103 103 102 101 102 101 100 101 101 103 103 104 105 105 105 106 108 109 112 118 118 107 109
133 127 124 120 119 117 114 113 112 112 112 111 111 108 106 104 103 103 104 105 103 102 100 100 101 100 101 102 102 104 105 105 107 109 112 110 108 110 110 106 97 109 114
133 130 130 122 121 118 116 115 114 113 113 112 111 109 107 105 103 103 104 103 103 102 100 100 100 101 101 102 103 103 103 104 109 119 128 116 111 109 107 103 104 113 114
134 134 130 125 123 120 117 116 115 114 113 113 112 110 108 106 104 103 103 102 102 102 102 102 102 102 102 103 103 103 103 106 116 147 122 110 112 110 110 110 111 112 114
131 129 127 131 127 125 121 119 117 116 115 114 112 111 110 108 106 103 103 103 104 104 104 104 103 102 103 104 104 104 106 110 131 124 99 102 106 113 114 114 114 114 115
137 136 130 134 130 128 125 122 119 117 116 115 114 112 109 108 107 106 104 104 106 107 106 106 106 105 105 106 106 107 111 133 157 102 105 109 111 117 117 117 117 117 116
141 136 134 137 133 131 127 125 122 119 116 115 113 113 113 111 110 109 106 108 110 109 108 108 109 107 107 108 108 110 115 153 103 103 107 102 107 118 120 120 120 119 117
142 139 134 137 135 132 129 126 125 122 119 117 114 114 114 112 112 111 110 110 110 109 110 110 110 109 107 108 110 113 126 201 111 103 99 100 108 119 119 118 121 123 120
144 141 145 146 141 137 132 131 131 127 123 119 117 115 113 112 111 112 113 113 112 111 112 111 110 107 107 109 112 117 117 303 104 105 105 105 115 122 125 124 125 126 125
150 148 149 149 148 153 147 142 139 133 128 123 121 120 120 121 119 121 125 116 116 116 117 115 113 111 111 113 115 125 154 215 106 110 106 110 121 128 132 132 130 130 129
156 156 158 153 156 158 151 146 150 144 139 142 135 134 151 142 133 140 111 118 121 121 120 120 120 121 129 132 128 151 187 134 102 95 98 109 128 134 136 137 138 138 136
166 167 165 161 157 162 155 152 160 157 150 159 139 148 142 119 121 117 119 128 129 129 131 128 137 161 189 146 145 183 149 115 113 114 108 123 138 142 141 143 144 145 144
172 172 169 164 163 169 160 162 159 155 151 155 145 148 132 145 142 141 143 145 150 160 156 148 175 176 150 108 123 133 109 117 115 115 120 137 149 153 154 156 158 157 159
178 178 174 167 171 174 173 167 171 167 164 160 152 170 157 158 152 141 152 146 159 158 146 164 161 151 144 141 146 128 138 144 115 109 125 149 163 168 170 172 174 173 173
182 182 179 177 174 175 178 190 180 176 171 163 163 170 176 171 167 153 149 162 177 159 167 181 176 167 188 191 192 186 187 152 151 156 140 159 174 182 186 185 185 185 185
187 186 182 184 182 183 183 190 187 186 181 182 180 175 190 187 169 173 174 179 189 189 178 184 182 190 206 212 215 214 233 215 179 205 173 165 181 193 199 198 195 197 198
188 187 188 188 185 189 193 195 195 197 190 192 186 187 199 203 189 200 191 194 193 187 182 203 200 207 211 210 212 216 218 222 208 211 214 196 183 191 200 205 205 206 209
188 188 193 194 188 190 196 201 205 207 199 201 198 195 202 207 206 219 212 204 197 204 200 202 220 214 218 227 222 224 216 206 216 218 218 213 212 195 191 199 210 213 216
192 190 192 197 193 192 193 198 207 207 213 213 209 205 203 212 213 221 225 212 213 217 218 228 207 227 222 230 229 216 226 222 216 219 223 225 214 218 208 187 202 214 220
194 192 194 195 196 193 193 198 208 211 211 217 219 212 214 218 219 225 222 215 226 223 222 230 232 237 240 238 250 239 234 234 231 223 226 226 227 223 224 213 206 211 215
195 193 194 195 191 191 194 201 207 208 211 215 220 215 219 228 223 227 236 216 230 232 232 230 230 230 231 235 247 247 240 231 230 231 230 232 227 228 230 225 229 228 211
195 196 195 196 194 197 199 203 212 217 218 217 225 219 223 226 227 225 230 232 230 233 231 236 237 243 240 226 243 254 249 224 219 226 226 228 234 230 228 225 225 232 242
195 197 197 196 194 198 196 200 209 213 226 219 222 218 222 227 228 234 231 235 236 237 232 233 236 238 245 236 236 249 266 264 255 215 220 227 230 233 237 232 225 225 231
194 196 196 194 195 196 194 202 208 217 224 225 225 223 223 225 228 228 232 233 236 239 236 237 233 240 246 247 237 238 254 281 275 269 229 214 221 230 240 243 234 227 229
189 189 189 190 193 194 198 204 211 220 228 232 228 225 230 227 227 230 231 234 235 241 241 244 242 240 240 246 247 243 244 247 250 259 267 262 240 231 227 233 240 241 234
184 186 187 188 193 195 198 205 210 218 223 228 226 227 227 229 228 227 229 233 235 238 238 237 237 237 241 246 251 251 249 251 248 249 256 256 257 255 237 234 236 237 241
Height
1540 1540 1539 1541 1542 1543 1544 1545 1546 1547 1548 1548 1549 1549 1550 1551 1551 1552 1553 1554 1555 1555 1556 1556 1557 1557 1558 1559 1559 1560 1561 1561 1562 1563 1564 1565 1566 1567 1568 1569 1570 1571 1571
1540 1541 1541 1543 1544 1545 1547 1548 1549 1549 1550 1551 1552 1552 1553 1554 1554 1555 1556 1557 1557 1558 1559 1559 1560 1560 1561 1561 1562 1563 1563 1564 1565 1566 1567 1568 1568 1569 1570 1571 1573 1573 1574
1541 1542 1543 1545 1546 1548 1549 1550 1551 1552 1553 1554 1554 1555 1556 1556 1557 1558 1558 1559 1560 1560 1561 1562 1562 1563 1563 1564 1564 1565 1566 1567 1568 1569 1570 1571 1571 1572 1573 1574 1574 1575 1576
1543 1545 1546 1546 1548 1550 1551 1552 1553 1554 1555 1556 1557 1557 1558 1559 1559 1560 1561 1561 1562 1563 1564 1564 1565 1565 1566 1566 1567 1568 1568 1569 1570 1572 1574 1575 1574 1574 1575 1576 1577 1578 1579
1545 1546 1546 1548 1550 1552 1553 1554 1555 1556 1557 1558 1559 1560 1560 1561 1562 1563 1563 1564 1565 1565 1566 1567 1567 1568 1568 1569 1570 1570 1571 1572 1573 1575 1576 1576 1576 1576 1577 1578 1579 1580 1581
1546 1549 1548 1550 1552 1554 1555 1556 1558 1559 1560 1560 1561 1562 1563 1563 1564 1565 1565 1566 1567 1568 1569 1569 1570 1570 1571 1572 1572 1573 1574 1574 1576 1578 1578 1579 1578 1578 1579 1580 1581 1582 1583
1549 1551 1550 1552 1554 1556 1557 1558 1560 1561 1562 1562 1563 1564 1565 1565 1566 1567 1568 1568 1569 1570 1571 1572 1572 1573 1574 1574 1575 1575 1576 1576 1580 1580 1580 1581 1580 1580 1581 1582 1583 1584 1585
1551 1553 1552 1554 1556 1558 1559 1560 1562 1563 1563 1564 1565 1566 1566 1567 1568 1569 1570 1571 1571 1572 1573 1574 1575 1576 1576 1577 1577 1578 1578 1579 1582 1583 1582 1582 1581 1582 1583 1584 1585 1586 1586
1552 1554 1555 1556 1557 1559 1561 1562 1563 1564 1565 1566 1567 1568 1568 1569 1570 1571 1572 1572 1573 1574 1575 1576 1577 1578 1579 1579 1580 1580 1581 1581 1585 1585 1585 1584 1583 1584 1585 1585 1586 1587 1588
1554 1556 1557 1559 1560 1561 1562 1563 1564 1566 1567 1567 1568 1569 1570 1571 1572 1573 1574 1574 1575 1576 1577 1578 1579 1580 1581 1581 1582 1582 1583 1584 1587 1587 1587 1585 1585 1585 1586 1587 1588 1589 1590
1554 1556 1558 1560 1562 1564 1565 1565 1566 1567 1568 1569 1570 1570 1572 1574 1574 1575 1575 1576 1577 1578 1579 1580 1581 1582 1583 1583 1583 1584 1585 1587 1588 1588 1587 1586 1586 1587 1587 1588 1589 1590 1591
1553 1556 1558 1561 1562 1564 1566 1566 1568 1569 1569 1571 1572 1573 1574 1575 1576 1577 1576 1577 1578 1579 1580 1581 1583 1584 1585 1586 1586 1586 1588 1588 1589 1589 1588 1587 1587 1588 1589 1589 1590 1591 1592
1554 1556 1558 1560 1561 1564 1566 1567 1569 1570 1571 1572 1573 1573 1575 1576 1577 1578 1579 1579 1580 1581 1583 1583 1584 1587 1587 1588 1588 1589 1589 1590 1590 1590 1589 1588 1588 1589 1589 1590 1591 1592 1592
1554 1556 1559 1560 1561 1564 1566 1568 1569 1571 1572 1573 1573 1574 1576 1577 1578 1579 1580 1581 1582 1583 1584 1585 1586 1587 1587 1588 1589 1589 1590 1590 1591 1591 1589 1589 1589 1589 1590 1590 1591 1592 1593
1553 1555 1558 1559 1561 1562 1564 1567 1569 1571 1573 1573 1574 1574 1576 1577 1578 1579 1580 1581 1583 1584 1584 1585 1586 1587 1587 1588 1589 1590 1590 1590 1590 1591 1590 1589 1589 1589 1590 1590 1591 1592 1593
1552 1554 1556 1558 1560 1562 1564 1566 1568 1570 1571 1574 1574 1575 1575 1577 1578 1579 1580 1581 1583 1584 1585 1585 1586 1587 1587 1588 1589 1589 1590 1590 1590 1590 1591 1589 1589 1589 1590 1590 1591 1591 1592
1551 1553 1555 1557 1559 1561 1563 1566 1568 1570 1572 1573 1574 1574 1575 1577 1578 1579 1580 1581 1582 1583 1583 1584 1585 1586 1587 1588 1588 1589 1589 1589 1589 1589 1590 1590 1589 1589 1589 1589 1590 1591 1591
1550 1552 1554 1557 1558 1560 1562 1564 1567 1569 1571 1572 1573 1574 1574 1576 1577 1578 1580 1581 1581 1583 1583 1584 1585 1586 1587 1587 1588 1588 1588 1588 1588 1588 1589 1589 1589 1590 1589 1589 1589 1590 1590
1547 1549 1552 1554 1556 1559 1561 1563 1565 1567 1569 1570 1572 1573 1574 1575 1576 1577 1579 1580 1580 1582 1583 1584 1585 1585 1585 1585 1586 1586 1587 1587 1587 1587 1587 1588 1588 1588 1588 1587 1587 1588 1589
1545 1547 1549 1552 1554 1557 1559 1561 1563 1565 1567 1568 1570 1571 1572 1573 1574 1576 1577 1578 1579 1580 1581 1582 1582 1583 1583 1584 1585 1585 1585 1585 1585 1586 1586 1586 1586 1586 1587 1587 1586 1586 1586
1542 1544 1546 1549 1552 1554 1557 1559 1561 1563 1565 1566 1568 1569 1570 1571 1573 1574 1576 1576 1577 1578 1578 1580 1581 1581 1582 1582 1583 1583 1583 1583 1583 1583 1583 1584 1584 1584 1584 1584 1585 1585 1585
1539 1541 1544 1547 1549 1552 1555 1557 1559 1561 1562 1564 1565 1566 1568 1569 1570 1572 1572 1574 1574 1575 1576 1577 1578 1579 1580 1580 1581 1581 1581 1581 1580 1580 1580 1580 1581 1582 1582 1582 1581 1581 1582
1536 1538 1541 1544 1546 1549 1552 1554 1557 1558 1560 1562 1563 1564 1565 1566 1567 1568 1569 1571 1572 1573 1574 1574 1575 1576 1577 1578 1578 1579 1579 1578 1578 1578 1577 1578 1578 1578 1578 1579 1579 1579 1579
1533 1536 1538 1541 1543 1546 1548 1551 1553 1555 1557 1559 1560 1562 1562 1563 1564 1565 1566 1567 1568 1570 1570 1571 1573 1573 1574 1574 1575 1575 1576 1576 1577 1575 1575 1575 1575 1575 1575 1576 1576 1576 1575
1531 1533 1535 1537 1540 1542 1545 1547 1550 1552 1554 1556 1558 1558 1559 1560 1560 1562 1563 1564 1564 1566 1567 1567 1568 1569 1570 1571 1572 1573 1573 1573 1573 1573 1573 1573 1572 1572 1571 1572 1572 1572 1572
1528 1530 1532 1534 1537 1539 1541 1544 1546 1548 1550 1552 1554 1555 1556 1557 1557 1558 1559 1560 1560 1562 1562 1563 1564 1565 1566 1567 1568 1569 1569 1570 1570 1570 1569 1569 1569 1569 1568 1568 1568 1568 1568